Location: Forestville
(38.4740°N, 122.8890°W)
Time: 19:18:32
(UTC-07:00)

Amateur Radio Satellites - All Passes

Search period start: 30 August 2016 18:48
Search period end: 31 August 2016 18:48
Location: Forestville, 38.4740°N, 122.8890°W

Satellite Date Start Highest point End Downlink Frequencies (MHz)
Time Altitude Azimuth
Cosmos 2504 30 Aug 18:55:58 19:03:10 76° 81° (E) 19:10:23 435.465 / 435.565
YUBILEINY 30 Aug 18:56:06 19:04:09 43° 273° (W) 19:12:08 435.215
HO-68 30 Aug 18:57:28 19:02:58 24° 60° (ENE) 19:08:28 435.675
NOAA 18 30 Aug 19:12:26 19:17:52 57° 258° (WSW) 19:23:19 137.9125
DOVE 4 30 Aug 19:23:26 19:28:38 85° 256° (WSW) 19:33:59 437.250
CANX-2 30 Aug 19:27:22 19:30:37 22° 69° (ENE) 19:33:51 2200.000
PCSat 30 Aug 19:31:09 19:34:31 16° 45° (NE) 19:37:52 145.827
CUTE 1.7 + AOD 2 30 Aug 19:32:47 19:36:01 22° 69° (ENE) 19:39:15 437.475
Cubesat XI-IV 30 Aug 19:33:29 19:38:14 32° 263° (W) 19:43:00 437.490
AIST 2 30 Aug 19:34:18 19:35:42 11° 42° (NE) 19:37:05 435.215
COMPASS 1 30 Aug 19:34:18 19:34:56 10° 64° (ENE) 19:35:34 437.405
NOAA 15 30 Aug 19:34:47 19:38:58 24° 265° (W) 19:43:12 137.62
GOMX 1 30 Aug 19:35:07 19:39:38 31° 265° (W) 19:44:24 467.674
CUBEBUG 2 30 Aug 19:38:37 19:39:20 10° 63° (ENE) 19:40:01 437.445
CINEMA 3 30 Aug 19:39:38 19:44:18 41° 72° (ENE) 19:48:55 145.822/145.860
STRAND 1 30 Aug 19:42:41 19:46:53 25° 95° (E) 19:51:04 437.568
CUTE-I 30 Aug 19:44:43 19:49:04 25° 265° (W) 19:53:27 437.470
BEESAT 2 30 Aug 20:08:47 20:10:57 14° 251° (WSW) 20:13:08 435.950
SEEDS 30 Aug 20:33:13 20:37:21 78° 77° (ENE) 20:41:32 437.485
Oscar 11 30 Aug 20:33:42 20:36:23 16° 66° (ENE) 20:39:05 145.826/435.025
Cosmos 2491 30 Aug 20:36:05 20:41:57 19° 295° (WNW) 20:47:53 435.465 / 435.565
AIST 1 30 Aug 20:42:04 20:46:30 90° 15° (NNE) 20:50:51
HO-68 30 Aug 20:42:58 20:50:05 64° 257° (WSW) 20:57:15 435.675
FUNcube-1 30 Aug 20:45:19 20:48:36 21° 69° (ENE) 20:51:51 145.935
Cosmos 2504 30 Aug 20:51:36 20:55:36 16° 280° (W) 20:59:36 435.465 / 435.565
AAUSAT CUBESAT 2 30 Aug 20:54:11 20:58:16 72° 75° (ENE) 21:02:22 437.432
UWE-3 30 Aug 21:01:01 21:05:27 53° 74° (ENE) 21:09:47 435.000/436.395/437.385
CANX-2 30 Aug 21:02:43 21:06:18 28° 264° (W) 21:09:56 2200.000
COMPASS 1 30 Aug 21:05:51 21:09:55 63° 259° (W) 21:14:02 437.405
ZACube-1 30 Aug 21:07:51 21:11:59 39° 73° (ENE) 21:16:03 437.345
CUTE 1.7 + AOD 2 30 Aug 21:08:05 21:11:42 28° 264° (W) 21:15:19 437.475
AIST 2 30 Aug 21:10:33 21:14:46 86° 241° (WSW) 21:18:56 435.215
CUBEBUG 2 30 Aug 21:10:38 21:15:19 79° 258° (WSW) 21:19:53 437.445
PCSat 30 Aug 21:13:07 21:18:33 80° 244° (WSW) 21:23:57 145.827
CINEMA 3 30 Aug 21:17:44 21:21:30 21° 267° (W) 21:25:16 145.822/145.860
GONETS M04 30 Aug 21:19:00 21:21:11 11° 58° (ENE) 21:23:21
STRAND 1 30 Aug 21:21:28 21:26:04 35° 291° (WNW) 21:30:41 437.568
HUMSAT D 30 Aug 21:25:57 21:27:25 12° 65° (ENE) 21:28:54 437.325/437.525
PRISM 30 Aug 21:33:19 21:37:12 36° 98° (E) 21:41:03 437.425
Cosmos 2499 30 Aug 21:53:31 21:55:07 11° 62° (ENE) 21:56:43 435.465 / 435.565
DELFI C3 30 Aug 22:02:57 22:06:51 68° 75° (ENE) 22:10:47 145.870
Oscar 11 30 Aug 22:08:07 22:12:10 40° 262° (W) 22:16:15 145.826/435.025
SO-50 30 Aug 22:10:24 22:13:42 18° 110° (ESE) 22:16:59 436.795
FUNcube-1 30 Aug 22:20:40 22:24:38 32° 263° (W) 22:28:33 145.935
ANTELSAT 30 Aug 22:28:58 22:31:24 15° 92° (E) 22:33:50 437.575/2403.000
AUBIESAT-1 30 Aug 22:31:37 22:35:15 23° 63° (ENE) 22:38:50 437.475
M-CUBED/EXP-1 PRIME 30 Aug 22:39:48 22:44:00 34° 66° (ENE) 22:48:13 437.505
UWE-3 30 Aug 22:40:03 22:42:09 13° 268° (W) 22:44:15 435.000/436.395/437.385
ZACube-1 30 Aug 22:45:30 22:48:23 17° 267° (W) 22:51:14 437.345
CUSAT 1 30 Aug 22:47:20 22:49:16 15° 85° (E) 22:51:27 437.405
AISAT 30 Aug 22:57:13 22:59:02 12° 63° (ENE) 23:00:53 437.250
TIGRISAT 30 Aug 22:57:46 23:01:32 30° 97° (E) 23:05:15 435.000
HUMSAT D 30 Aug 22:58:30 23:02:34 54° 260° (W) 23:06:37 437.325/437.525
RS-15 30 Aug 23:00:30 23:03:30 11° 93° (E) 23:06:32 29.354- 29.394
ESTCUBE 1 30 Aug 23:02:00 23:05:37 25° 68° (ENE) 23:09:15 437.505/2401.250
PRISM 30 Aug 23:09:25 23:12:12 18° 293° (WNW) 23:14:59 437.425
GONETS M04 30 Aug 23:11:11 23:20:00 63° 80° (E) 23:28:43
50 SAT 30 Aug 23:26:58 23:29:33 19° 69° (ENE) 23:32:09 437.505
UNISAT 6 30 Aug 23:27:15 23:31:31 74° 101° (E) 23:35:46 437.425
CUBEBUG 1 30 Aug 23:34:04 23:38:03 35° 71° (ENE) 23:42:05 437.445
O/OREOS (USA 219) 30 Aug 23:35:43 23:40:19 66° 68° (ENE) 23:44:53 437.305
SPROUT 30 Aug 23:36:14 23:38:40 15° 66° (ENE) 23:41:07 437.525
VELOX 1 30 Aug 23:41:37 23:45:38 35° 71° (ENE) 23:49:42 145.980
Cosmos 2499 30 Aug 23:42:23 23:49:27 77° 82° (E) 23:56:41 435.465 / 435.565
DX 1 30 Aug 23:46:48 23:50:28 27° 69° (ENE) 23:54:08 434.975-435.025
SO-50 30 Aug 23:49:04 23:53:48 51° 305° (NW) 23:58:30 436.795
DUCHIFAT 1 30 Aug 23:50:51 23:53:09 14° 92° (E) 23:55:28 145.980
QB50P2 30 Aug 23:58:05 00:01:23 22° 95° (E) 00:04:38 145.880/145.840
POLYITAN 1 31 Aug 00:00:35 00:03:52 22° 95° (E) 00:07:08 437.675
ANTELSAT 31 Aug 00:04:18 00:08:19 41° 288° (WNW) 00:12:18 437.575/2403.000
AUBIESAT-1 31 Aug 00:05:10 00:09:26 37° 257° (WSW) 00:13:43 437.475
NANOSAT C BR1 31 Aug 00:05:37 00:09:00 23° 95° (E) 00:12:21 145.865
M-CUBED/EXP-1 PRIME 31 Aug 00:14:37 00:18:28 25° 260° (W) 00:22:21 437.505
DANDE 31 Aug 00:17:59 00:20:33 65° 98° (E) 00:23:25 436.750
UKube-1 31 Aug 00:19:36 00:23:45 47° 72° (ENE) 00:27:55 .
CUSAT 1 31 Aug 00:28:43 00:31:03 18° 292° (WNW) 00:33:46 437.405
BUGSAT 1 31 Aug 00:30:28 00:33:08 17° 93° (E) 00:35:44 437.445
AISAT 31 Aug 00:30:33 00:34:57 62° 259° (W) 00:39:24 437.250
TIGRISAT 31 Aug 00:34:50 00:38:02 21° 292° (WNW) 00:41:12 435.000
PHONESAT 2.4 31 Aug 00:35:52 00:38:39 36° 155° (SSE) 00:41:28 2401.200-2431.200
ESTCUBE 1 31 Aug 00:38:25 00:42:17 28° 264° (W) 00:46:11 437.505/2401.250
JAS-2 31 Aug 00:45:33 00:52:18 44° 98° (E) 00:59:34 435.910
QB50P1 31 Aug 00:51:15 00:55:29 89° 107° (ESE) 00:59:40 145.935-145.965
50 SAT 31 Aug 01:00:06 01:02:59 22° 264° (W) 01:05:52 437.505
POPSAT HIP 1 31 Aug 01:01:40 01:05:52 71° 285° (WNW) 01:10:02 437.405
RS-15 31 Aug 01:02:02 01:13:16 65° 113° (ESE) 01:25:07 29.354- 29.394
GONETS M04 31 Aug 01:09:12 01:16:03 26° 278° (W) 01:22:54
SPROUT 31 Aug 01:10:04 01:14:12 46° 261° (W) 01:18:23 437.525
CUBEBUG 1 31 Aug 01:11:14 01:14:24 19° 266° (W) 01:17:37 437.445
TISAT 1 31 Aug 01:15:36 01:19:34 40° 72° (ENE) 01:23:33 437.305
O/OREOS (USA 219) 31 Aug 01:18:03 01:19:05 11° 263° (W) 01:20:06 437.305
VELOX 1 31 Aug 01:18:56 01:22:10 20° 266° (W) 01:25:26 145.980
DX 1 31 Aug 01:22:58 01:26:34 25° 264° (W) 01:30:13 434.975-435.025
DUCHIFAT 1 31 Aug 01:25:05 01:29:02 41° 288° (WNW) 01:32:57 145.980
QB50P2 31 Aug 01:33:33 01:37:09 28° 290° (WNW) 01:40:44 145.880/145.840
POLYITAN 1 31 Aug 01:36:04 01:39:38 27° 290° (WNW) 01:43:11 437.675
Cosmos 2499 31 Aug 01:37:48 01:41:39 16° 279° (W) 01:45:33 435.465 / 435.565
NANOSAT C BR1 31 Aug 01:41:10 01:44:40 26° 290° (WNW) 01:48:07 145.865
Oscar 19 31 Aug 01:52:00 01:56:20 26° 95° (E) 02:00:38 437.125/150
Gurwin Techsat 1B 31 Aug 01:55:03 01:57:03 12° 90° (E) 01:59:03 435.225
UKube-1 31 Aug 01:57:50 02:00:02 14° 268° (W) 02:02:13 .
ITUPSAT 1 31 Aug 02:04:31 02:08:29 27° 68° (ENE) 02:12:28 437.325
BUGSAT 1 31 Aug 02:04:52 02:08:36 34° 289° (WNW) 02:12:16 437.445
PHONESAT 2.4 31 Aug 02:11:55 02:14:55 66° 351° (N) 02:17:54 2401.200-2431.200
JAS-2 31 Aug 02:30:52 02:37:07 36° 292° (WNW) 02:43:54 435.910
SWISSCUBE 31 Aug 02:34:37 02:39:18 63° 74° (ENE) 02:44:01 437.505
BEESAT 31 Aug 02:51:14 02:56:00 85° 73° (ENE) 03:00:46 436.000
TISAT 1 31 Aug 02:52:47 02:55:21 16° 267° (W) 02:57:56 437.305
ITAMSAT 1 31 Aug 03:14:47 03:18:39 21° 94° (E) 03:22:32 435.822/435.867
RS-15 31 Aug 03:15:37 03:26:25 41° 317° (NW) 03:37:47 29.354- 29.394
Oscar 19 31 Aug 03:30:58 03:35:40 35° 291° (WNW) 03:40:19 437.125/150
Gurwin Techsat 1B 31 Aug 03:32:12 03:37:31 75° 286° (WNW) 03:42:48 435.225
KKS-1 31 Aug 03:35:09 03:38:51 26° 68° (ENE) 03:42:34 437.445
ITUPSAT 1 31 Aug 03:42:05 03:46:12 29° 263° (W) 03:50:21 437.325
PHONESAT 2.4 31 Aug 03:48:26 03:51:24 62° 7° (N) 03:54:23 2401.200-2431.200
AO-85 31 Aug 03:48:52 03:52:30 19° 110° (ESE) 03:56:04 145.980
STARS 31 Aug 04:00:37 04:04:08 24° 68° (ENE) 04:07:40 437.465
MOZHAYETS 4 31 Aug 04:07:57 04:12:29 76° 75° (ENE) 04:17:03
SWISSCUBE 31 Aug 04:15:39 04:17:29 12° 269° (W) 04:19:20 437.505
AO-7 31 Aug 04:38:09 04:46:17 56° 103° (ESE) 04:54:21 29.400- 29.500
Cosmos 2491 31 Aug 04:47:49 04:55:58 39° 74° (ENE) 05:04:03 435.465 / 435.565
ITAMSAT 1 31 Aug 04:53:24 04:58:17 43° 290° (WNW) 05:03:09 435.822/435.867
KKS-1 31 Aug 05:11:29 05:15:18 27° 264° (W) 05:19:08 437.445
PHONESAT 2.4 31 Aug 05:24:51 05:27:42 42° 203° (SSW) 05:30:33 2401.200-2431.200
AO-85 31 Aug 05:27:25 05:32:38 56° 304° (NW) 05:37:36 145.980
RS-15 31 Aug 05:35:42 05:43:43 19° 350° (N) 05:51:54 29.354- 29.394
STARS 31 Aug 05:36:27 05:40:20 29° 263° (W) 05:44:13 437.465
CUBESAT XI-V 31 Aug 05:38:29 05:43:05 86° 77° (ENE) 05:47:44 437.345
YUBILEINY 31 Aug 05:58:01 06:06:19 48° 88° (E) 06:14:38 435.215
GOMX 1 31 Aug 06:04:13 06:04:33 10° 86° (E) 06:04:53 467.674
NOAA 15 31 Aug 06:11:56 06:15:11 16° 92° (E) 06:18:25 137.62
Cubesat XI-IV 31 Aug 06:13:58 06:16:10 12° 90° (E) 06:18:23 437.490
LilacSat-2 31 Aug 06:20:41 06:21:21 10° 91° (E) 06:22:01 437.200
CUTE-I 31 Aug 06:23:37 06:26:53 16° 92° (E) 06:30:09 437.470
HORYU 2 31 Aug 06:25:12 06:29:38 86° 282° (WNW) 06:34:02 437.375
AO-7 31 Aug 06:31:33 06:38:38 33° 301° (WNW) 06:45:41 29.400- 29.500
SO-50 31 Aug 06:43:07 06:45:23 13° 41° (NE) 06:47:37 436.795
BRITE-PL 31 Aug 06:44:04 06:49:44 66° 100° (E) 06:55:10 437.365/2234.400
Cosmos 2491 31 Aug 06:44:38 06:52:47 44° 272° (W) 07:00:57 435.465 / 435.565
STRAND 1 31 Aug 06:57:07 07:01:35 32° 68° (ENE) 07:06:03 437.568
DOVE 4 31 Aug 07:24:54 07:29:13 30° 95° (E) 07:33:17 437.250
Cosmos 2504 31 Aug 07:31:14 07:39:34 69° 93° (E) 07:47:20 435.465 / 435.565
ISS 31 Aug 07:31:18 07:34:31 57° 137° (SE) 07:37:45 145.825
NOAA 18 31 Aug 07:35:52 07:41:20 70° 102° (ESE) 07:46:45 137.9125
GOMX 1 31 Aug 07:37:58 07:43:21 85° 282° (WNW) 07:48:21 467.674
NOAA 15 31 Aug 07:50:05 07:55:18 58° 288° (WNW) 08:00:30 137.62
Cubesat XI-IV 31 Aug 07:51:26 07:56:45 73° 286° (WNW) 08:02:02 437.490
LilacSat-2 31 Aug 07:52:17 07:55:53 45° 286° (WNW) 07:59:29 437.200
RS-15 31 Aug 07:52:51 08:02:34 26° 27° (NNE) 08:12:14 29.354- 29.394
YUBILEINY 31 Aug 07:55:20 08:03:15 36° 287° (WNW) 08:11:13 435.215
CUTE-I 31 Aug 08:02:04 08:07:16 57° 287° (WNW) 08:12:27 437.470
HO-68 31 Aug 08:12:57 08:18:52 27° 95° (E) 08:24:43 435.675
SEEDS 31 Aug 08:19:55 08:22:12 14° 92° (E) 08:24:30 437.485
PRISM 31 Aug 08:21:46 08:24:55 22° 68° (ENE) 08:28:06 437.425
SO-50 31 Aug 08:21:54 08:26:31 84° 237° (WSW) 08:30:58 436.795
BEESAT 2 31 Aug 08:23:12 08:23:59 11° 108° (ESE) 08:24:48 435.950
BRITE-PL 31 Aug 08:23:55 08:27:32 18° 297° (WNW) 08:31:06 437.365/2234.400
BEESAT 3 31 Aug 08:30:12 08:33:30 27° 113° (ESE) 08:36:52 437.485
STRAND 1 31 Aug 08:36:22 08:40:42 28° 264° (W) 08:45:04 437.568
AAUSAT CUBESAT 2 31 Aug 08:39:41 08:41:28 12° 91° (E) 08:43:15 437.432
CANX-2 31 Aug 08:48:19 08:52:30 52° 100° (E) 08:56:38 2200.000
COMPASS 1 31 Aug 08:50:35 08:53:52 22° 95° (E) 08:57:08 437.405
CUTE 1.7 + AOD 2 31 Aug 08:53:36 08:57:45 52° 100° (E) 09:01:54 437.475
UWE-3 31 Aug 08:54:54 08:55:44 10° 90° (E) 08:56:35 435.000/436.395/437.385
DOVE 4 31 Aug 09:02:40 09:06:45 26° 292° (WNW) 09:10:39 437.250
CUBEBUG 2 31 Aug 09:03:50 09:07:08 22° 95° (E) 09:10:22 437.445
ISS 31 Aug 09:08:43 09:11:12 20° 335° (NNW) 09:13:42 145.825
AIST 1 31 Aug 09:09:29 09:13:44 56° 94° (E) 09:18:03
CINEMA 3 31 Aug 09:12:58 09:17:23 69° 285° (WNW) 09:21:36 145.822/145.860
CUSAT 1 31 Aug 09:17:43 09:23:28 27° 72° (ENE) 09:29:49 437.405
NOAA 18 31 Aug 09:18:14 09:21:22 16° 299° (WNW) 09:24:29 137.9125
GOMX 1 31 Aug 09:19:27 09:20:26 10° 301° (WNW) 09:21:23 467.674
ANTELSAT 31 Aug 09:27:09 09:29:13 13° 64° (ENE) 09:31:16 437.575/2403.000
Cosmos 2504 31 Aug 09:27:18 09:33:29 23° 290° (WNW) 09:39:24 435.465 / 435.565
SEEDS 31 Aug 09:54:06 09:58:06 43° 287° (WNW) 10:02:06 437.485
TIGRISAT 31 Aug 09:55:02 09:58:43 24° 69° (ENE) 10:02:20 435.000
Oscar 11 31 Aug 09:56:32 10:00:34 38° 98° (E) 10:04:35 145.826/435.025
PRISM 31 Aug 09:56:34 10:00:04 27° 263° (W) 10:03:36 437.425
BEESAT 2 31 Aug 09:57:24 10:01:16 58° 303° (WNW) 10:05:13 435.950
HO-68 31 Aug 09:59:55 10:06:50 54° 292° (WNW) 10:13:43 435.675
RS-15 31 Aug 10:05:34 10:17:58 69° 55° (NE) 10:30:04 29.354- 29.394
BEESAT 3 31 Aug 10:07:56 10:11:08 24° 310° (NW) 10:14:22 437.485
FUNcube-1 31 Aug 10:09:38 10:13:39 49° 100° (E) 10:17:39 145.935
PCSat 31 Aug 10:12:24 10:15:36 16° 104° (ESE) 10:18:48 145.827
AAUSAT CUBESAT 2 31 Aug 10:13:09 10:17:11 48° 286° (WNW) 10:21:12 437.432
GONETS M04 31 Aug 10:20:06 10:23:20 13° 75° (ENE) 10:26:35
UNISAT 6 31 Aug 10:24:10 10:28:37 54° 74° (ENE) 10:33:00 437.425
COMPASS 1 31 Aug 10:25:49 10:29:23 27° 290° (WNW) 10:32:56 437.405
CANX-2 31 Aug 10:25:58 10:27:53 13° 295° (WNW) 10:29:48 2200.000
UWE-3 31 Aug 10:28:29 10:32:32 54° 285° (WNW) 10:36:33 435.000/436.395/437.385
CUTE 1.7 + AOD 2 31 Aug 10:31:11 10:33:07 13° 295° (WNW) 10:35:05 437.475
ZACube-1 31 Aug 10:33:26 10:37:35 78° 282° (WNW) 10:41:42 437.345
JUGNU 31 Aug 10:37:05 10:39:00 11° 175° (S) 10:40:54 437.505
CUBEBUG 2 31 Aug 10:40:13 10:43:43 26° 290° (WNW) 10:47:10 437.445
HUMSAT D 31 Aug 10:43:37 10:46:59 24° 96° (E) 10:50:20 437.325/437.525
QB50P2 31 Aug 10:50:12 10:52:37 15° 65° (ENE) 10:55:01 145.880/145.840
AIST 1 31 Aug 10:50:16 10:51:43 11° 290° (WNW) 10:53:10
POLYITAN 1 31 Aug 10:52:39 10:55:07 15° 66° (ENE) 10:57:34 437.675
DANDE 31 Aug 10:52:45 10:58:40 56° 80° (E) 11:06:07 436.750
NANOSAT C BR1 31 Aug 10:57:09 10:59:42 16° 66° (ENE) 11:02:15 145.865
CUSAT 1 31 Aug 10:58:50 11:05:41 61° 265° (W) 11:13:29 437.405
ANTELSAT 31 Aug 11:00:54 11:05:26 59° 259° (W) 11:09:53 437.575/2403.000
JAS-2 31 Aug 11:00:59 11:02:57 12° 57° (ENE) 11:04:57 435.910
AIST 2 31 Aug 11:07:04 11:10:31 27° 113° (ESE) 11:14:01 435.215
DELFI C3 31 Aug 11:16:29 11:20:26 57° 285° (WNW) 11:24:22 145.870
BUGSAT 1 31 Aug 11:20:26 11:21:36 11° 64° (ENE) 11:22:47 437.445
TIGRISAT 31 Aug 11:31:15 11:35:15 29° 263° (W) 11:39:11 435.000
Oscar 11 31 Aug 11:33:30 11:36:24 18° 293° (WNW) 11:39:17 145.826/435.025
QB50P1 31 Aug 11:41:52 11:46:01 53° 74° (ENE) 11:50:11 145.935-145.965
AUBIESAT-1 31 Aug 11:46:57 11:49:11 15° 97° (E) 11:51:20 437.475
FUNcube-1 31 Aug 11:47:38 11:49:27 13° 295° (WNW) 11:51:16 145.935
POPSAT HIP 1 31 Aug 11:52:12 11:56:27 69° 75° (ENE) 12:00:42 437.405
PCSat 31 Aug 11:53:02 11:58:24 63° 300° (WNW) 12:03:48 145.827
M-CUBED/EXP-1 PRIME 31 Aug 11:55:38 11:58:53 25° 99° (E) 12:01:55 437.505
UNISAT 6 31 Aug 12:03:26 12:05:36 13° 268° (W) 12:07:44 437.425
GONETS M04 31 Aug 12:09:48 12:18:31 76° 94° (E) 12:27:20
DUCHIFAT 1 31 Aug 12:14:47 12:19:02 72° 258° (WSW) 12:23:17 145.980
Cosmos 2499 31 Aug 12:16:18 12:24:19 67° 94° (E) 12:31:45 435.465 / 435.565
RS-15 31 Aug 12:19:06 12:29:34 35° 256° (WSW) 12:39:52 29.354- 29.394
HUMSAT D 31 Aug 12:19:12 12:22:30 24° 290° (WNW) 12:25:48 437.325/437.525
AISAT 31 Aug 12:22:33 12:26:21 27° 96° (E) 12:30:06 437.250
SRMSAT 31 Aug 12:23:22 12:24:02 10° 172° (S) 12:24:40 437.500
AO-85 31 Aug 12:23:24 12:24:06 10° 39° (NE) 12:24:48 145.980
QB50P2 31 Aug 12:23:55 12:28:01 45° 261° (W) 12:32:08 145.880/145.840
ISS 31 Aug 12:25:14 12:26:27 12° 15° (NNE) 12:27:40 145.825
JUGNU 31 Aug 12:25:18 12:27:06 11° 186° (S) 12:28:54 437.505
POLYITAN 1 31 Aug 12:26:25 12:30:31 44° 261° (W) 12:34:38 437.675
50 SAT 31 Aug 12:29:04 12:32:15 28° 97° (E) 12:35:25 437.505
NANOSAT C BR1 31 Aug 12:31:01 12:35:04 42° 261° (W) 12:39:07 145.865
ESTCUBE 1 31 Aug 12:31:27 12:35:59 65° 101° (E) 12:40:29 437.505/2401.250
DANDE 31 Aug 12:36:23 12:41:15 24° 269° (W) 12:46:57 436.750
JAS-2 31 Aug 12:41:52 12:47:05 83° 255° (WSW) 12:52:45 435.910
AIST 2 31 Aug 12:45:27 12:48:55 26° 309° (NW) 12:52:27 435.215
BUGSAT 1 31 Aug 12:52:12 12:56:25 64° 259° (W) 13:00:38 437.445
SPROUT 31 Aug 12:57:31 13:01:21 31° 97° (E) 13:05:07 437.525
CUBEBUG 1 31 Aug 12:59:43 13:04:09 87° 97° (E) 13:08:33 437.445
Oscar 19 31 Aug 13:07:19 13:11:54 33° 69° (ENE) 13:16:31 437.125/150
VELOX 1 31 Aug 13:08:55 13:13:24 87° 101° (E) 13:17:51 145.980
DX 1 31 Aug 13:11:36 13:15:56 60° 101° (E) 13:20:15 434.975-435.025
Gurwin Techsat 1B 31 Aug 13:14:04 13:17:38 19° 64° (ENE) 13:21:13 435.225
AUBIESAT-1 31 Aug 13:20:18 13:23:49 32° 294° (WNW) 13:27:06 437.475
QB50P1 31 Aug 13:20:27 13:22:04 12° 269° (W) 13:23:42 145.935-145.965
M-CUBED/EXP-1 PRIME 31 Aug 13:30:14 13:33:17 21° 298° (WNW) 13:36:09 437.505
PCSat 31 Aug 13:41:35 13:42:54 11° 320° (NW) 13:44:14 145.827
UKube-1 31 Aug 13:43:46 13:48:07 75° 283° (WNW) 13:52:25 .
O/OREOS (USA 219) 31 Aug 13:46:20 13:50:49 79° 291° (WNW) 13:55:22 437.305
AO-7 31 Aug 13:48:15 13:52:11 14° 48° (NE) 13:56:07 29.400- 29.500
AISAT 31 Aug 13:59:02 14:02:42 26° 291° (WNW) 14:06:21 437.250
ISS 31 Aug 14:00:27 14:03:37 42° 34° (NE) 14:06:45 145.825
AO-85 31 Aug 14:01:06 14:05:20 85° 64° (ENE) 14:09:15 145.980
50 SAT 31 Aug 14:03:13 14:05:35 17° 292° (WNW) 14:07:58 437.505
GONETS M04 31 Aug 14:09:50 14:16:15 22° 294° (WNW) 14:22:44
SRMSAT 31 Aug 14:10:11 14:12:16 12° 182° (S) 14:14:21 437.500
ESTCUBE 1 31 Aug 14:10:26 14:12:13 12° 297° (WNW) 14:14:00 437.505/2401.250
Cosmos 2499 31 Aug 14:12:03 14:17:55 22° 290° (WNW) 14:23:32 435.465 / 435.565
ITAMSAT 1 31 Aug 14:31:14 14:35:37 29° 67° (ENE) 14:40:01 435.822/435.867
SPROUT 31 Aug 14:33:54 14:37:04 20° 292° (WNW) 14:40:12 437.525
TISAT 1 31 Aug 14:36:05 14:40:19 89° 119° (ESE) 14:44:28 437.305
SWISSCUBE 31 Aug 14:37:16 14:40:30 18° 94° (E) 14:43:42 437.505
Oscar 19 31 Aug 14:46:51 14:51:12 27° 264° (W) 14:55:36 437.125/150
DX 1 31 Aug 14:49:50 14:51:35 12° 297° (WNW) 14:53:21 434.975-435.025
Gurwin Techsat 1B 31 Aug 14:51:57 14:57:08 55° 260° (W) 15:02:21 435.225
BEESAT 31 Aug 14:53:24 14:57:14 24° 95° (E) 15:01:02 436.000
AO-7 31 Aug 15:35:08 15:43:23 67° 68° (ENE) 15:51:38 29.400- 29.500
ISS 31 Aug 15:37:31 15:39:50 18° 230° (SW) 15:42:08 145.825
ITUPSAT 1 31 Aug 15:43:05 15:47:53 79° 103° (ESE) 15:52:40 437.325
MOZHAYETS 4 31 Aug 16:05:11 16:08:32 20° 94° (E) 16:11:53
ITAMSAT 1 31 Aug 16:10:22 16:14:58 32° 263° (W) 16:19:35 435.822/435.867
YUBILEINY 31 Aug 16:10:52 16:17:09 21° 66° (ENE) 16:23:22 435.215
SWISSCUBE 31 Aug 16:13:56 16:18:27 44° 288° (WNW) 16:22:58 437.505
BEESAT 31 Aug 16:30:46 16:35:01 33° 291° (WNW) 16:39:15 436.000
BEESAT 3 31 Aug 16:49:26 16:51:19 13° 44° (NE) 16:53:13 437.485
KKS-1 31 Aug 17:03:00 17:07:26 62° 101° (ESE) 17:11:49 437.445
GOMX 1 31 Aug 17:10:06 17:11:31 11° 59° (ENE) 17:12:58 467.674
HORYU 2 31 Aug 17:21:24 17:25:50 72° 75° (ENE) 17:30:17 437.375
NOAA 18 31 Aug 17:23:10 17:26:15 15° 61° (ENE) 17:29:20 137.9125
ITUPSAT 1 31 Aug 17:23:42 17:25:02 11° 299° (WNW) 17:26:23 437.325
STARS 31 Aug 17:26:36 17:30:55 53° 100° (E) 17:35:10 437.465
Cosmos 2504 31 Aug 17:27:04 17:31:58 19° 68° (ENE) 17:36:49 435.465 / 435.565
AO-7 31 Aug 17:30:04 17:36:39 25° 265° (W) 17:43:16 29.400- 29.500
NOAA 15 31 Aug 17:30:20 17:34:26 24° 65° (ENE) 17:38:33 137.62
Cubesat XI-IV 31 Aug 17:33:54 17:37:41 20° 64° (ENE) 17:41:27 437.490
CUBESAT XI-V 31 Aug 17:36:59 17:40:49 24° 95° (E) 17:44:38 437.345
MOZHAYETS 4 31 Aug 17:41:35 17:45:47 36° 289° (WNW) 17:49:59
CUTE-I 31 Aug 17:43:45 17:47:58 25° 66° (ENE) 17:52:12 437.470
Cosmos 2491 31 Aug 17:47:01 17:55:10 47° 88° (E) 18:03:23 435.465 / 435.565
BRITE-PL 31 Aug 17:52:52 17:57:44 60° 74° (ENE) 18:03:01 437.365/2234.400
YUBILEINY 31 Aug 18:06:08 18:14:54 78° 265° (W) 18:23:34 435.215
BEESAT 2 31 Aug 18:16:36 18:20:30 48° 56° (NE) 18:24:23 435.950
BEESAT 3 31 Aug 18:25:28 18:29:24 64° 241° (WSW) 18:33:17 437.485
DOVE 4 31 Aug 18:28:03 18:32:30 29° 68° (ENE) 18:37:01 437.250
LilacSat-2 31 Aug 18:32:15 18:36:03 65° 76° (ENE) 18:39:51 437.200
KKS-1 31 Aug 18:41:39 18:43:26 12° 297° (WNW) 18:45:13 437.445
